| time (UTC) | temp F | wind direction | speed MPH | gust MPH | rain 1hr in | rain 24hr in | rain mn in | humidity % | barometer mb |
| 20260503004526 | 83 | 141 | 2.0 | 7.0 | 0.00 | 0.00 | 0.00 | 5 | 1008.8 |
| 20260503003019 | 83 | 129 | 0.0 | 4.0 | 0.00 | 0.00 | 0.00 | 5 | 1008.9 |
| 20260503001518 | 83 | 157 | 0.0 | 7.0 | 0.00 | 0.00 | 0.00 | 5 | 1009.0 |
| 20260503000017 | 83 | 153 | 3.0 | 8.0 | 0.00 | 0.00 | 0.00 | 5 | 1009.0 |
| 20260502234523 | 83 | 90 | 2.0 | 11.0 | 0.00 | 0.00 | 0.00 | 5 | 1009.1 |
| 20260502233029 | 84 | 258 | 2.0 | 7.0 | 0.00 | 0.00 | 0.00 | 5 | 1009.1 |
| 20260502231513 | 83 | 205 | 0.0 | 11.0 | 0.00 | 0.00 | 0.00 | 5 | 1009.2 |
| 20260502230012 | 82 | 33 | 2.0 | 9.0 | 0.00 | 0.00 | 0.00 | 6 | 1009.4 |
| 20260502224511 | 83 | 122 | 4.0 | 10.0 | 0.00 | 0.00 | 0.00 | 6 | 1009.4 |
| 20260502223009 | 83 | 99 | 6.0 | 13.0 | 0.00 | 0.00 | 0.00 | 6 | 1009.8 |
| 20260502221511 | 83 | 63 | 5.0 | 13.0 | 0.00 | 0.00 | 0.00 | 6 | 1010.2 |
| 20260502220006 | 83 | 159 | 3.0 | 11.0 | 0.00 | 0.00 | 0.00 | 7 | 1010.4 |
| 20260502214501 | 83 | 95 | 2.0 | 7.0 | 0.00 | 0.00 | 0.00 | 6 | 1010.7 |
| 20260502213100 | 83 | 190 | 5.0 | 12.0 | 0.00 | 0.00 | 0.00 | 7 | 1010.9 |
| 20260502211557 | 83 | 200 | 5.0 | 10.0 | 0.00 | 0.00 | 0.00 | 7 | 1011.3 |
| 20260502210106 | 82 | 121 | 6.0 | 11.0 | 0.00 | 0.00 | 0.00 | 7 | 1011.6 |
| 20260502204557 | 82 | 122 | 4.0 | 16.0 | 0.00 | 0.00 | 0.00 | 7 | 1011.8 |
| 20260502203053 | 82 | 52 | 4.0 | 12.0 | 0.00 | 0.00 | 0.00 | 7 | 1011.8 |
| 20260502201548 | 81 | 185 | 2.0 | 7.0 | 0.00 | 0.00 | 0.00 | 8 | 1012.2 |
| 20260502200051 | 81 | 91 | 7.0 | 14.0 | 0.00 | 0.00 | 0.00 | 8 | 1012.6 |
| 20260502194545 | 81 | 136 | 2.0 | 7.0 | 0.00 | 0.00 | 0.00 | 8 | 1012.7 |
| 20260502193046 | 81 | 115 | 5.0 | 13.0 | 0.00 | 0.00 | 0.00 | 9 | 1013.0 |
| 20260502191544 | 81 | 138 | 5.0 | 12.0 | 0.00 | 0.00 | 0.00 | 10 | 1013.2 |
| 20260502190048 | 81 | 115 | 7.0 | 12.0 | 0.00 | 0.00 | 0.00 | 9 | 1013.4 |
| 20260502184541 | 80 | 127 | 7.0 | 11.0 | 0.00 | 0.00 | 0.00 | 9 | 1013.6 |
| 20260502183040 | 79 | 63 | 5.0 | 13.0 | 0.00 | 0.00 | 0.00 | 9 | 1013.9 |
| 20260502181544 | 80 | 125 | 8.0 | 12.0 | 0.00 | 0.00 | 0.00 | 9 | 1014.1 |
| 20260502163038 | 76 | 150 | 3.0 | 10.0 | 0.00 | 0.00 | 0.00 | 12 | 1014.6 |
| 20260502161525 | 76 | 200 | 4.0 | 7.0 | 0.00 | 0.00 | 0.00 | 12 | 1014.6 |
| 20260502151632 | 71 | 354 | 1.0 | 4.0 | 0.00 | 0.00 | 0.00 | 15 | 1014.5 |
| 20260502123108 | 66 | 298 | 1.0 | 4.0 | 0.00 | 0.00 | 0.00 | 15 | 1013.0 |
| 20260502121600 | 66 | 267 | 1.0 | 7.0 | 0.00 | 0.00 | 0.00 | 15 | 1013.0 |
| 20260502114601 | 66 | 300 | 3.0 | 8.0 | 0.00 | 0.00 | 0.00 | 14 | 1012.9 |
| 20260502113104 | 66 | 275 | 0.0 | 4.0 | 0.00 | 0.00 | 0.00 | 14 | 1012.9 |
| 20260502111601 | 66 | 281 | 1.0 | 5.0 | 0.00 | 0.00 | 0.00 | 14 | 1012.8 |
| 20260502110056 | 66 | 283 | 0.0 | 3.0 | 0.00 | 0.00 | 0.00 | 14 | 1012.9 |
| 20260502104552 | 67 | 290 | 1.0 | 3.0 | 0.00 | 0.00 | 0.00 | 14 | 1012.9 |
| 20260502103101 | 68 | 309 | 0.0 | 6.0 | 0.00 | 0.00 | 0.00 | 13 | 1012.9 |
| 20260502101558 | 69 | 254 | 1.0 | 6.0 | 0.00 | 0.00 | 0.00 | 12 | 1012.9 |
| 20260502100108 | 69 | 263 | 2.0 | 6.0 | 0.00 | 0.00 | 0.00 | 12 | 1012.9 |
| 20260502071527 | 74 | 63 | 0.0 | 5.0 | 0.00 | 0.00 | 0.00 | 10 | 1013.0 |
| 20260502070024 | 74 | 277 | 0.0 | 4.0 | 0.00 | 0.00 | 0.00 | 10 | 1012.9 |
| 20260502064522 | 75 | 250 | 1.0 | 10.0 | 0.00 | 0.00 | 0.00 | 9 | 1012.8 |
| 20260502063122 | 72 | 302 | 1.0 | 3.0 | 0.00 | 0.00 | 0.00 | 11 | 1012.8 |
| 20260502061532 | 72 | 210 | 0.0 | 2.0 | 0.00 | 0.00 | 0.00 | 11 | 1012.8 |
| 20260502060022 | 72 | 354 | 0.0 | 0.0 | 0.00 | 0.00 | 0.00 | 11 | 1012.6 |
| 20260502054520 | 72 | 314 | 0.0 | 2.0 | 0.00 | 0.00 | 0.00 | 11 | 1012.6 |
| 20260502053019 | 73 | 334 | 0.0 | 3.0 | 0.00 | 0.00 | 0.00 | 10 | 1012.6 |
| 20260502051523 | 73 | 2 | 5.0 | 14.0 | 0.00 | 0.00 | 0.00 | 11 | 1012.3 |
| 20260502050018 | 72 | 295 | 1.0 | 4.0 | 0.00 | 0.00 | 0.00 | 12 | 1012.0 |
| 20260502044520 | 72 | 272 | 0.0 | 0.0 | 0.00 | 0.00 | 0.00 | 11 | 1011.9 |
| 20260502043021 | 73 | 342 | 0.0 | 0.0 | 0.00 | 0.00 | 0.00 | 11 | 1011.6 |
| 20260502041524 | 74 | 314 | 0.0 | 2.0 | 0.00 | 0.00 | 0.00 | 11 | 1011.4 |
| 20260502040016 | 76 | 312 | 1.0 | 6.0 | 0.00 | 0.00 | 0.00 | 10 | 1011.0 |
| 20260502034515 | 76 | 345 | 3.0 | 7.0 | 0.00 | 0.00 | 0.00 | 9 | 1010.9 |
| 20260502033023 | 76 | 327 | 2.0 | 8.0 | 0.00 | 0.00 | 0.00 | 9 | 1010.6 |
| 20260502031515 | 76 | 20 | 0.0 | 6.0 | 0.00 | 0.00 | 0.00 | 10 | 1010.4 |
| 20260502030013 | 77 | 357 | 2.0 | 5.0 | 0.00 | 0.00 | 0.00 | 10 | 1010.2 |
| 20260502024513 | 77 | 322 | 2.0 | 6.0 | 0.00 | 0.00 | 0.00 | 10 | 1010.0 |
| 20260502023013 | 78 | 315 | 0.0 | 3.0 | 0.00 | 0.00 | 0.00 | 10 | 1009.8 |
| 20260502021511 | 80 | 321 | 1.0 | 8.0 | 0.00 | 0.00 | 0.00 | 9 | 1009.6 |
| 20260502020011 | 81 | 293 | 2.0 | 8.0 | 0.00 | 0.00 | 0.00 | 9 | 1009.6 |
| 20260502014512 | 81 | 325 | 5.0 | 11.0 | 0.00 | 0.00 | 0.00 | 9 | 1009.4 |
| 20260502013012 | 81 | 345 | 7.0 | 14.0 | 0.00 | 0.00 | 0.00 | 8 | 1009.3 |
| 20260502011509 | 82 | 326 | 1.0 | 11.0 | 0.00 | 0.00 | 0.00 | 9 | 1009.3 |
| 20260502010009 | 82 | 314 | 4.0 | 11.0 | 0.00 | 0.00 | 0.00 | 9 | 1009.3 |